Springfield, IL

4:19 AM CDT on July 25, 2017 (GMT -0500)
Capital

Weather History for KSPI - October, 2014

Change the Weather History Date:

Sunday, October 5, 2014

  Actual Average Record
Temperature  
Mean Temperature 53 °F 59 °F  
Max Temperature 69 °F 71 °F 89 °F (1981)
Min Temperature 37 °F 47 °F 28 °F (2004)
Degree Days  
Heating Degree Days 12 8  
Month to date heating degree days 43 35  
Since 1 July heating degree days 123 116  
Cooling Degree Days 0 1  
Month to date cooling degree days 6 7  
Year to date cooling degree days 1155 1106  
Growing Degree Days 2 (Base 50)    
Moisture  
Dew Point 39 °F    
Average Humidity 63    
Maximum Humidity 86    
Minimum Humidity 40    
Precipitation  
Precipitation T in 0.10 in 2.41 in (1955)
Month to date precipitation 2.50 0.50  
Year to date precipitation 40.01 29.05  
Snow  
Snow 0.00 in 0.00 in 0.00 in ()
Month to date snowfall 0.0 0.0  
Since 1 July snowfall 0.0 0.0  
Since 1 September snowfall 0.0 0.0  
Snow Depth 0.00 in    
Sea Level Pressure  
Sea Level Pressure 29.76 in    
Wind  
Wind Speed 5 mph (SW)    
Max Wind Speed 12 mph    
Max Gust Speed 16 mph    
Visibility 10 miles    
Events      
T = Trace of Precipitation, MM = Missing Value Source: NWS Daily Summary

Daily Weather History Graph

Daily Weather History Graph

Search for Another Location

Airport or City:

Trip Planner

Search our weather history database for the weather conditions in past years. The results will help you decide how hot, cold, wet, or windy it might be!

Date:

Astronomy

Oct. 05, 2014 Rise Set
Actual Time 6:58 AM CDT 6:34 PM CDT
Civil Twilight 6:31 AM CDT 7:01 PM CDT
Nautical Twilight 6:00 AM CDT 7:32 PM CDT
Astronomical Twilight 5:29 AM CDT 8:04 PM CDT
Moon 4:52 PM CDT (10/5) 3:36 AM CDT (10/5)
Length of Visible Light 12h 29m
Length of Day
11h 35m
Waxing Gibbous, 89% of the Moon is Illuminated
Oct 5
Waxing Gibbous
Oct 8
Full
Oct 15
Last Quarter
Oct 23
New
Oct 30
First Quarter

Hourly Weather History & Observations

Time (CDT) Temp. Windchill Dew Point Humidity Pressure Visibility Wind Dir Wind Speed Gust Speed Precip Events Conditions
12:52 AM 37.9 °F 34.4 °F 33.1 °F 83% 29.86 in 10.0 mi SW 4.6 mph - N/A   Clear
1:52 AM 37.9 °F 34.4 °F 33.1 °F 83% 29.86 in 10.0 mi SW 4.6 mph - N/A   Clear
2:52 AM 41.0 °F 38.0 °F 36.0 °F 82% 29.84 in 10.0 mi SSW 4.6 mph - N/A   Mostly Cloudy
3:52 AM 43.0 °F 39.5 °F 35.1 °F 74% 29.83 in 10.0 mi SSW 5.8 mph - N/A   Overcast
4:52 AM 44.1 °F 41.5 °F 36.0 °F 73% 29.82 in 10.0 mi SSW 4.6 mph - N/A   Overcast
5:52 AM 45.0 °F 42.6 °F 36.0 °F 71% 29.82 in 10.0 mi SW 4.6 mph - N/A   Overcast
6:52 AM 46.0 °F 43.1 °F 36.0 °F 68% 29.81 in 10.0 mi SW 5.8 mph - N/A   Overcast
7:52 AM 46.9 °F - 36.0 °F 66% 29.81 in 10.0 mi SW 6.9 mph - N/A   Overcast
8:52 AM 48.9 °F - 37.0 °F 64% 29.80 in 10.0 mi SSW 4.6 mph - N/A   Overcast
9:52 AM 53.1 °F - 36.0 °F 52% 29.80 in 10.0 mi SW 9.2 mph - N/A   Mostly Cloudy
10:52 AM 55.0 °F - 37.9 °F 53% 29.78 in 10.0 mi South 5.8 mph - N/A   Overcast
11:52 AM 57.0 °F - 41.0 °F 55% 29.76 in 10.0 mi SSW 6.9 mph - 0.00 in   Mostly Cloudy
12:52 PM 61.0 °F - 42.1 °F 50% 29.72 in 10.0 mi SSE 5.8 mph - N/A   Partly Cloudy
1:52 PM 64.0 °F - 39.9 °F 41% 29.68 in 10.0 mi South 6.9 mph - N/A   Partly Cloudy
2:52 PM 66.9 °F - 41.0 °F 39% 29.67 in 10.0 mi SSW 5.8 mph - N/A   Partly Cloudy
3:52 PM 66.9 °F - 42.1 °F 40% 29.66 in 10.0 mi NW 6.9 mph - N/A   Mostly Cloudy
4:52 PM 64.9 °F - 43.0 °F 45% 29.66 in 10.0 mi NNW 8.1 mph - N/A   Overcast
5:52 PM 64.0 °F - 43.0 °F 46% 29.68 in 10.0 mi NW 5.8 mph - N/A   Mostly Cloudy
6:52 PM 57.0 °F - 42.1 °F 57% 29.72 in 10.0 mi WNW 4.6 mph - N/A   Clear
7:52 PM 48.9 °F - 43.0 °F 80% 29.73 in 10.0 mi Calm Calm - N/A   Clear
8:52 PM 46.9 °F - 43.0 °F 86% 29.73 in 10.0 mi Calm Calm - N/A   Clear
9:52 PM 46.0 °F 44.8 °F 43.0 °F 89% 29.72 in 10.0 mi SSE 3.5 mph - N/A   Clear
10:52 PM 46.0 °F 44.8 °F 42.1 °F 86% 29.72 in 10.0 mi South 3.5 mph - N/A   Clear
11:52 PM 48.0 °F - 43.0 °F 83% 29.70 in 10.0 mi South 5.8 mph - N/A   Clear